{"data":{"norad_id":52847,"intl_designator":"2022-062T","name":"STARLINK-4206","alt_names":[],"object_type":"PAYLOAD","status":"ACTIVE","operator":null,"country":"US","launch_date":"2022-06-17","launch_site_code":"AFETR","launch_vehicle":null,"mission":null,"orbit_class":"UNKNOWN","rcs_meters":null,"size_class":null,"mass_kg":null,"dimensions":null,"purposes":["comms"],"wikipedia_slug":null,"has_3d_model":false,"image_url":null,"decayed_at":null,"tle_current":{"epoch":"2026-09-19T13:58:23.609280Z","epoch_age_seconds":145697,"freshness":"FRESH","line1":"1 52847U 22062T   26262.58221770  .00002457  00000+0  83806-4 0  9994","line2":"2 52847  53.1607 233.7655 0001248  86.7954 273.3192 15.34410309235192","mean_motion":15.34410309,"eccentricity":0.0001248,"inclination_deg":53.1607,"raan_deg":233.7655,"arg_perigee_deg":86.7954,"mean_anomaly_deg":273.3192,"bstar":8.3806e-5,"rev_number":23519,"period_min":93.847127561237,"perigee_km":461.81886682007,"apogee_km":463.52633289619,"semimajor_km":6840.8095998581,"source":"CELESTRAK","updated_at":"2026-09-20T09:00:40.114256Z"}}}